Simultaneous Nadir Overpasses (SNOs) Predictions

Prediction of SNOs between AQUA and NPP Satellite Orbit:

Table of predicted SNOs for the next 14.0 days since TLE Epoch: 8/31/2024
Index Date (AQUA) Time (AQUA) Lat,Lon (AQUA) SZA (AQUA ) Date (NPP) Time (NPP) Lat,Lon (NPP) SZA (NPP ) Distance(km) Time Diff (sec)
1 09/01/2024 19:38:47 81.29, 171.34 79.79 09/01/2024 19:38:24 81.28, 171.15 79.83 3.23 23
2 09/01/2024 20:28:08 -81.29, -20.89 100.22 09/01/2024 20:29:08 -81.29, -21.03 100.23 2.40 60
3 09/04/2024 07:41:27 -81.29, 170.86 99.36 09/04/2024 07:41:31 -81.29, 170.95 99.38 1.62 4
4 09/06/2024 18:54:43 -81.28, 2.24 98.44 09/06/2024 18:53:55 -81.28, 2.40 98.43 2.71 48
5 09/06/2024 19:44:03 81.29, 170.21 81.54 09/06/2024 19:44:38 81.29, 170.25 81.51 0.72 35
6 09/09/2024 06:57:14 81.29, 1.96 82.42 09/09/2024 06:57:01 81.29, 1.92 82.43 0.79 13
7 09/09/2024 07:46:35 -81.30, 169.73 97.59 09/09/2024 07:47:45 -81.30, 169.82 97.65 1.62 70
8 09/11/2024 18:10:21 81.29,-166.27 83.30 09/11/2024 18:09:23 81.29,-166.15 83.32 1.98 58



Historial Predications of SNOs between AQUA and NPP
